• In Hungary
  • List of Countries
  • For 7 days
  • Water Temperature
  • Satellite Maps
  • Weather Map
  • News
  • Weather Widgets
  • user-avatar
    Login

    Hourly Weather Borovec

    Today, 15 December, Friday

    Time Temperature Precipitation Wind Pressure Humidity
    00:00 +5°C° 0 mm 2 mps 707 mmHg 75%
    01:00 +5°C° 0 mm 2 mps 707 mmHg 75%
    02:00 +4°C° 0 mm 2 mps 707 mmHg 75%
    03:00 +4°C° 0 mm 2 mps 707 mmHg 75%
    04:00 +4°C° 0 mm 2 mps 707 mmHg 75%
    05:00 +4°C° 0 mm 2 mps 707 mmHg 75%
    06:00 +4°C° 0 mm 2 mps 707 mmHg 74%
    07:00 +4°C° 0 mm 2 mps 707 mmHg 74%
    08:00 +4°C° 0 mm 2 mps 707 mmHg 74%
    09:00 +6°C° 0 mm 2 mps 707 mmHg 69%
    10:00 +8°C° 0 mm 2 mps 707 mmHg 65%
    11:00 +10°C° 0 mm 2 mps 707 mmHg 60%
    12:00 +12°C° 0 mm 2 mps 707 mmHg 58%
    13:00 +11°C° 0 mm 3 mps 707 mmHg 57%
    14:00 +12°C° 0 mm 3 mps 706 mmHg 56%
    15:00 +12°C° 0 mm 2 mps 706 mmHg 62%
    16:00 +10°C° 0 mm 2 mps 706 mmHg 67%
    17:00 +9°C° 0 mm 2 mps 705 mmHg 73%
    18:00 +8°C° 0 mm 2 mps 705 mmHg 74%
    19:00 +8°C° 0 mm 3 mps 705 mmHg 75%
    20:00 +7°C° 0 mm 3 mps 704 mmHg 76%
    21:00 +7°C° 0 mm 3 mps 704 mmHg 76%
    22:00 +7°C° 0 mm 3 mps 704 mmHg 76%
    23:00 +7°C° 0 mm 3 mps 704 mmHg 76%

    Tomorrow, 16 December, Saturday

    Time Temperature Precipitation Wind Pressure Humidity
    00:00 +7°C° 0 mm 3 mps 704 mmHg 77%
    01:00 +7°C° 0 mm 3 mps 703 mmHg 77%
    02:00 +5°C° 0 mm 3 mps 703 mmHg 78%
    03:00 +7°C° 0 mm 3 mps 703 mmHg 79%
    04:00 +7°C° 0 mm 3 mps 702 mmHg 79%
    05:00 +6°C° 0 mm 4 mps 702 mmHg 79%
    06:00 +6°C° 0 mm 4 mps 702 mmHg 79%
    07:00 +6°C° 0 mm 4 mps 702 mmHg 79%
    08:00 +6°C° 0 mm 4 mps 702 mmHg 79%
    09:00 +7°C° 0 mm 4 mps 702 mmHg 75%
    10:00 +9°C° 0 mm 5 mps 702 mmHg 70%
    11:00 +10°C° 0 mm 5 mps 702 mmHg 65%
    12:00 +12°C° 0 mm 5 mps 702 mmHg 63%
    13:00 +12°C° 0 mm 5 mps 702 mmHg 60%
    14:00 +13°C° 0 mm 5 mps 702 mmHg 57%
    15:00 +12°C° 0.1 mm 4 mps 702 mmHg 64%
    16:00 +11°C° 0.1 mm 3 mps 702 mmHg 71%
    17:00 +10°C° 0.1 mm 2 mps 702 mmHg 77%
    18:00 +9°C° 0.7 mm 2 mps 702 mmHg 81%
    19:00 +9°C° 0.7 mm 2 mps 702 mmHg 85%
    20:00 +9°C° 0.7 mm 1 mps 703 mmHg 88%
    21:00 +9°C° 1.5 mm 1 mps 703 mmHg 90%
    22:00 +8°C° 1.5 mm 1 mps 703 mmHg 91%
    23:00 +7°C° 1.5 mm 2 mps 703 mmHg 93%

    Day after tomorrow, 17 December, Sunday

    Time Temperature Precipitation Wind Pressure Humidity
    00:00 +7°C° 1.3 mm 2 mps 703 mmHg 93%
    01:00 +6°C° 1.3 mm 2 mps 703 mmHg 93%
    02:00 +6°C° 1.3 mm 2 mps 703 mmHg 93%
    03:00 +6°C° 1 mm 2 mps 703 mmHg 92%
    04:00 +6°C° 1 mm 1 mps 703 mmHg 91%
    05:00 +6°C° 1 mm 1 mps 704 mmHg 91%
    06:00 +6°C° 0.1 mm 1 mps 704 mmHg 91%
    07:00 +5°C° 0.1 mm 1 mps 705 mmHg 91%
    08:00 +5°C° 0.1 mm 1 mps 706 mmHg 91%
    09:00 +6°C° 0 mm 1 mps 706 mmHg 87%
    10:00 +5°C° 0 mm 2 mps 706 mmHg 83%
    11:00 +5°C° 0 mm 2 mps 707 mmHg 79%
    12:00 +5°C° 0.1 mm 2 mps 707 mmHg 77%
    13:00 +4°C° 0.1 mm 3 mps 707 mmHg 75%
    14:00 +4°C° 0.1 mm 3 mps 707 mmHg 73%
    15:00 +3°C° 0 mm 3 mps 708 mmHg 75%
    16:00 +3°C° 0 mm 3 mps 708 mmHg 77%
    17:00 +3°C° 0 mm 2 mps 709 mmHg 80%
    18:00 +2°C° 0 mm 2 mps 709 mmHg 81%
    19:00 +2°C° 0 mm 2 mps 710 mmHg 82%
    20:00 +1°C° 0 mm 2 mps 711 mmHg 83%
    21:00 +1°C° 0 mm 2 mps 711 mmHg 83%
    22:00 +1°C° 0 mm 2 mps 712 mmHg 83%
    23:00 -1°C° 0 mm 2 mps 712 mmHg 83%

    18 December, Monday

    Time Temperature Precipitation Wind Pressure Humidity
    00:00 -1°C° 0 mm 2 mps 713 mmHg 83%
    01:00 -1°C° 0 mm 2 mps 713 mmHg 83%
    02:00 -1°C° 0 mm 2 mps 713 mmHg 83%
    03:00 -1°C° 0 mm 2 mps 713 mmHg 83%
    04:00 -1°C° 0 mm 2 mps 713 mmHg 83%
    05:00 -1°C° 0 mm 2 mps 714 mmHg 83%
    06:00 -2°C° 0 mm 2 mps 714 mmHg 83%
    07:00 -2°C° 0 mm 2 mps 714 mmHg 82%
    08:00 -2°C° 0 mm 2 mps 715 mmHg 82%
    09:00 -1°C° 0 mm 2 mps 715 mmHg 77%
    10:00 -1°C° 0 mm 2 mps 715 mmHg 72%
    11:00 0°C° 0 mm 3 mps 716 mmHg 67%
    12:00 0°C° 0 mm 3 mps 715 mmHg 65%
    13:00 0°C° 0 mm 3 mps 715 mmHg 63%
    14:00 0°C° 0 mm 3 mps 714 mmHg 61%
    15:00 0°C° 0 mm 3 mps 714 mmHg 65%
    16:00 -1°C° 0 mm 2 mps 714 mmHg 69%
    17:00 -2°C° 0 mm 2 mps 714 mmHg 72%
    18:00 -2°C° 0 mm 2 mps 714 mmHg 74%
    19:00 -1°C° 0 mm 1 mps 715 mmHg 76%
    20:00 -1°C° 0 mm 1 mps 715 mmHg 77%
    21:00 -1°C° 0 mm 1 mps 715 mmHg 76%
    22:00 -1°C° 0 mm 1 mps 715 mmHg 75%
    23:00 -2°C° 0 mm 1 mps 716 mmHg 75%

    19 December, Tuesday

    Time Temperature Precipitation Wind Pressure Humidity
    00:00 -2°C° 0 mm 1 mps 716 mmHg 73%
    01:00 -2°C° 0 mm 1 mps 716 mmHg 72%
    02:00 -2°C° 0 mm 1 mps 716 mmHg 70%
    03:00 -2°C° 0 mm 1 mps 716 mmHg 69%
    04:00 -2°C° 0 mm 1 mps 716 mmHg 67%
    05:00 -2°C° 0 mm 1 mps 716 mmHg 66%
    06:00 -2°C° 0 mm 1 mps 716 mmHg 64%
    07:00 -1°C° 0 mm 1 mps 717 mmHg 63%
    08:00 -1°C° 0 mm 1 mps 717 mmHg 62%
    09:00 0°C° 0 mm 1 mps 718 mmHg 57%
    10:00 +1°C° 0 mm 1 mps 718 mmHg 52%
    11:00 +2°C° 0 mm 1 mps 718 mmHg 47%
    12:00 +3°C° 0 mm 1 mps 718 mmHg 47%
    13:00 +3°C° 0 mm 1 mps 718 mmHg 47%
    14:00 +4°C° 0 mm 1 mps 717 mmHg 47%
    15:00 +3°C° 0 mm 1 mps 717 mmHg 54%
    16:00 +2°C° 0 mm 1 mps 717 mmHg 60%
    17:00 +1°C° 0 mm 1 mps 717 mmHg 67%
    18:00 0°C° 0 mm 1 mps 717 mmHg 69%
    19:00 0°C° 0 mm 1 mps 717 mmHg 72%
    20:00 0°C° 0 mm 1 mps 718 mmHg 74%
    21:00 0°C° 0 mm 1 mps 718 mmHg 75%
    22:00 0°C° 0 mm 1 mps 718 mmHg 76%
    23:00 0°C° 0 mm 1 mps 718 mmHg 77%

    20 December, Wednesday

    Time Temperature Precipitation Wind Pressure Humidity
    00:00 0°C° 0 mm 1 mps 717 mmHg 79%
    01:00 0°C° 0 mm 1 mps 717 mmHg 80%
    02:00 0°C° 0 mm 1 mps 717 mmHg 81%
    03:00 0°C° 0 mm 1 mps 717 mmHg 82%
    04:00 0°C° 0 mm 1 mps 716 mmHg 83%
    05:00 0°C° 0 mm 1 mps 716 mmHg 84%
    06:00 -1°C° 0.1 mm 0 mps 716 mmHg 85%
    07:00 -1°C° 0.1 mm 0 mps 716 mmHg 85%
    08:00 -1°C° 0.1 mm 0 mps 716 mmHg 86%
    09:00 -1°C° 0.1 mm 0 mps 717 mmHg 82%
    10:00 0°C° 0.1 mm 0 mps 717 mmHg 79%
    11:00 +2°C° 0.1 mm 1 mps 717 mmHg 75%
    12:00 +2°C° 0.2 mm 1 mps 717 mmHg 75%
    13:00 +2°C° 0.2 mm 1 mps 717 mmHg 75%
    14:00 +2°C° 0.2 mm 2 mps 717 mmHg 75%
    15:00 +1°C° 0.2 mm 2 mps 717 mmHg 79%
    16:00 -1°C° 0.2 mm 2 mps 718 mmHg 83%
    17:00 -1°C° 0.2 mm 2 mps 718 mmHg 88%
    18:00 -2°C° 0.1 mm 2 mps 718 mmHg 89%
    19:00 -2°C° 0.1 mm 2 mps 719 mmHg 90%
    20:00 -2°C° 0.1 mm 2 mps 719 mmHg 91%
    21:00 -2°C° 0 mm 2 mps 720 mmHg 91%
    22:00 -3°C° 0 mm 2 mps 720 mmHg 91%
    23:00 -3°C° 0 mm 2 mps 720 mmHg 91%
    Show more